Starlink 31987

operational
NORAD ID: 60017 Int'l Des: 2024-111 Owner: SPXS Country: US Constellation: starlink
LEOCIRCULAR

About Starlink 31987

Description loading...

Live Position

Loading 3D Globe...

Upcoming Passes

Altitude History

Altitude vs Time

uPlot chart will show altitude changes over time

Two-Line Element Set

1 60017U 24111B 25351.28668786 -.00001064 00000-0 -23808-4 0 9998
2 60017 53.1603 98.6372 0001150 86.0173 274.0959 15.30190105 86376
Epoch: Dec 17, 2025 • Age: 10 hours

Current Status

Altitude 477.5 km
Velocity 7.63 km/s
Sub-Earth Point -6.95°S, 61.31°W
Launch Date Jun 8, 2024
Age 1.5 years
Type internet

Technical Details

Classification Payload
Mass 730.00 kg
Dry Mass 700.00 kg
Total Mass 730.00 kg
Length 0.30 m
Diameter 4.10 m
Span 29.00 m
Shape Box + pan
Manufacturer SPXS
Bus Type Starlink V2M
Phase Status In Orbit
Owner/State SPXS/US

Large Constellations

Loading constellations...